Powrót do katalogu

GAOFEN 9 03

AktywnyNaukaSSO
NORAD 45794·PAYLOAD·🇨🇳 China

Wystrzelony Jun 17, 2020 z Jiuquan Satellite Launch Center

Loading…

Następne Przeloty (najbliższe 24 godziny)

TLE

ŚwieżeSource: Space-Track

Epoka: Sep 14, 2026, 13:49 UTC

1 45794U 20039A   26257.57595478  .00008031  00000-0  24782-3 0  9993
2 45794  97.5513  33.2512 0012258 120.8026 239.4424 15.33776310347451

Śledź GAOFEN 9 03 w czasie rzeczywistym z AllMySat

Download on the App Store